SL-16 DEB, 22618

Orbit data source: Space-Track

SL-16 DEB, 22618 is space debris in LEO originally from a launch on Fri, 26 Mar 1993 UTC launched from the Tyuratam Missile And Space Complex (TTMTR). Debris objects in space refer to the collection of defunct objects orbiting the Earth. Examples of debris include non-operational satellites, rocket bodies, and fragments generated from explosions, collisions, or faulty payload assembly.

Loading next visibility...
SL-16 DEB details
Identifier
22618, 1993-016AC
Orbit
LEO
Last TLE update7 hours ago
Origin
Flag of CISRVSN RF (CIS)
ManufacturerUnknown
MissionSpacecraft
Bus & MotorUnknown
MassUnknown
Launch date (UTC)
1993-03-26 (32 years ago)
Launch vehicleUnknown
Launch site
Tyuratam Missile And Space Complex (TTMTR)
Object type
Payload
Rocket body
Debris
Shape & HBRUnknown
Radar Cross SectionSmall (<0.1 m²)

Expand to show TLE details & history

TLE from 7 hours ago
0 SL-16 DEB
1 22618U 93016AC  24361.21274052  .00000961  00000-0  83468-3 0  9995
2 22618  70.9934 293.6250 0156762 355.0039   4.9493 13.83142121600081
Epoch: 2024-12-26T05:06Z
Definitive object data (Epoch: 2024-12-26T05:06:20.78Z)
Latitude-0.00002°
Longitude121.84304°
Altitude840.633 km
Speed7.491 km/s
True Right ascension19h 34m 29s
True Declination0° 00' 00"
Sunlit
Object was in daylight at TLE epoch
Visualization TLE readout
Latitude68.69822°
Longitude-177.26693°
Altitude953.137 km
Speed7.387 km/s
Apparent Right ascension23h 43m 52s
Apparent Declination19° 53' 03"
Sunlit
Object is in daylight
Visualization observer readout
Local Sidereal Time11:47:03
Azimuth0.863° NNE
Elevation-30.195°
Doppler factor1
Orbital elements
Apogee altitude1,065.608 km
Perigee altitude835.831 km
Semi-major axis7,328.856 km
Eccentricity0.0156762
Inclination70.9934°
RAAN293.625°
Arg. of periapsis355.0039°
True anomaly5.10736°
Mean anomaly4.9493°
Eccentric anomaly5.02802°
Mean motion3.45931 °/min
BSTAR0.00083468
Orbital period104.07 mins
Loading maneuver chart data...
Loading historical data...
Loading historical data...
Loading historical data...
Loading historical data...
Loading historical data...
Loading historical data...
Loading historical data...

SL-16 DEB Visibility forecast

Observer location: undefined°, undefined

Span
Click to sort rows by Start time (UTC) header in descending order
Start Az.
Max El. time (UTC)
Max El. Az.
Max El.
End time (UTC)
End Az.
10 mins2024-12-26 20:50:32.609Z188.056° SSW2024-12-26 20:55:32.609Z91.79° ESE41.99°2024-12-26 21:00:32.609Z29.707° NE
7 mins2024-12-26 22:39:32.609Z275.037° WNW2024-12-26 22:42:32.609Z312.583° NW18.808°2024-12-26 22:46:32.609Z355.243° N
11 mins2024-12-27 05:57:32.609Z356.177° N2024-12-27 06:02:32.609Z62.306° ENE32.741°2024-12-27 06:08:32.609Z127.241° SE
10 mins2024-12-27 07:44:32.609Z311.977° NW2024-12-27 07:48:32.609Z261.934° W30.7°2024-12-27 07:54:32.609Z193.811° SSW
|